Flag for U.S.A. Weather past 2 weeks in Sitka, Alaska, U.S.A.

Now
54 °F

Overcast.


Feels Like: 54 °F
Forecast: 54 / 58 °F
Wind: 3 mph from Southwest

Location: Sitka Airport

Current Time: Sep 1, 2014 at 6:30:35 AM

Latest Report: Sep 1, 2014 at 5:53 AM


Visibility: 10 mi

Pressure: 29.71 "Hg

Humidity: 100%

Dew point: 54 °F

Location of SitkaLocation

Historic Weather in Sitka — Graph

°F

Sitka temperature yesterday

Maximum temperature yesterday: 54 °F (at 10:53 AM)
Minimum temperature yesterday: 50 °F (at 6:53 AM)
Average temperature yesterday: 53 °F

Past Weeks' High & Low Weather Summary

 TemperatureHumidityPressure
High70 °F (Aug 21, 4:53 PM)100% (Aug 19, 3:53 AM)30.22 "Hg (Aug 19, 3:53 AM)
Low48 °F (Aug 20, 4:53 AM)61% (Aug 20, 4:53 PM)29.47 "Hg (Aug 29, 12:53 PM)
Average56 °F89%29.94 "Hg
* Reported Aug 17 4:53 AM — Sep 1 4:53 AM, Sitka, Weather by CustomWeather, © 2014

Note: Actual official high and low records may vary slightly from our data, if they occured in-between our weather recording intervals... More about our weather records

Advertising

Sitka weather history for previous 24 hours

 ConditionsComfort  
Time TempWeatherWind HumidityBarometerVisibility
4:53 AM
Sep 1
54 °FLight rain. Overcast.5 mph100%29.70 "Hg9 mi
3:53 AM54 °FMostly cloudy.7 mph100%29.69 "Hg10 mi
3:02 AM53 °FLight rain. Fog.3 mph100%29.68 "Hg2 mi
1:53 AM53 °FLight rain. Low clouds.5 mph100%29.67 "Hg10 mi
1:03 AM53 °FRain. Fog.No wind100%29.67 "Hg3 mi
11:53 PM
Aug 31
53 °FLight rain. Overcast.5 mph100%29.65 "Hg10 mi
10:53 PM53 °FLight rain. Overcast.3 mph100%29.65 "Hg7 mi
9:53 PM53 °FLight rain. Overcast.5 mph96%29.65 "Hg8 mi
8:53 PM53 °FLight rain. Overcast.3 mph100%29.65 "Hg7 mi
7:53 PM54 °FLight rain. Fog.No wind97%29.65 "Hg6 mi
6:53 PM54 °FLight rain. Fog.No wind100%29.66 "Hg4 mi
5:53 PM54 °FLow clouds.3 mph100%29.66 "Hg10 mi
4:53 PM54 °FMore clouds than sun.No wind100%29.67 "Hg7 mi
3:53 PM53 °FLow clouds.6 mph100%29.67 "Hg10 mi
2:53 PM53 °FOvercast.5 mph100%29.68 "Hg10 mi
1:53 PM54 °FLight rain. Fog.5 mph93%29.69 "Hg4 mi
12:53 PM54 °FOvercast.5 mph93%29.68 "Hg10 mi
11:53 AM54 °FOvercast.5 mph90%29.68 "Hg10 mi
10:53 AM54 °FCloudy.No wind93%29.67 "Hg10 mi
9:53 AM53 °FLight rain. Mostly cloudy.12 mph93%29.67 "Hg9 mi
8:53 AM52 °FLight rain. Mostly cloudy.8 mph93%29.67 "Hg7 mi
7:53 AM51 °FLight rain. Fog.6 mph96%29.67 "Hg6 mi
6:53 AM50 °FLight rain. Overcast.6 mph100%29.67 "Hg7 mi
Weather by CustomWeather, © 2014

See weather overviewHow to use our weather pages